sat.trackr.live / text

‹ back to catalog

STARLINK-37452

NORAD 68840 · 2026-094B

PAYLOAD ACTIVE UNKNOWN

§ Identity

Operator
Country
US
Launch date
2026-04-26
Launch site
AFWTR
Launch vehicle
Mass (kg)
RCS (m²)

Purposes: comms

External: N2YO · Heavens-Above · Gunter

§ Orbital elements

Epoch: 2026-09-19T23:28:33.127680Z

Period
93.91 min
Inclination
97.2838°
Eccentricity
0.0001714
Mean motion
15.33452352 rev/d
Perigee alt
464.3 km
Apogee alt
466.7 km
Semi-major
6,843.7 km
B*
3.5961e-4
RAAN
276.0483°
Arg perigee
94.0075°
Mean anomaly
266.1364°
Rev number
2,257

§ Raw data

STARLINK-374521 68840U 26094B   26262.97816120  .00011555  00000+0  35961-3 0  99922 68840  97.2838 276.0483 0001714  94.0075 266.1364 15.33452352 22570

JSON: /api/v1/satellites/68840 · /tle

For live sub-satellite position, see the globe view (requires WebGL).

§ Visibility from observer

Set your observer location to see the next 7 days of passes ≥ 10°. The values pass through the URL so the page stays shareable.

No JS? Fill the form by hand. The geolocation button needs JavaScript.